{"data":{"norad_id":47367,"epoch":"2026-09-19T11:43:27.708096Z","epoch_age_seconds":113025,"freshness":"FRESH","line1":"1 47367U 21005U   26262.48851514  .00001042  00000+0  45338-4 0  9992","line2":"2 47367  53.1601 240.7653 0001338  92.1055 268.0099 15.31699862312728","mean_motion":15.31699862,"eccentricity":0.0001338,"inclination_deg":53.1601,"raan_deg":240.7653,"arg_perigee_deg":92.1055,"mean_anomaly_deg":268.0099,"bstar":4.5338e-5,"rev_number":31272,"period_min":94.013196431299,"perigee_km":469.8240267995,"apogee_km":471.6567863935,"semimajor_km":6848.8774065965,"source":"CELESTRAK","updated_at":"2026-09-20T09:00:38.590918Z"}}